Time,TemperatureF,DewpointF,PressureIn,WindDirection,WindDirectionDegrees,WindSpeedMPH,WindSpeedGustMPH,Humidity,HourlyPrecipIn,Conditions,Clouds,dailyrainin,SoftwareType,DateUTC
2013-03-16 00:12:00,51.8,49.8,29.94,SW,225,2.7,-999.0,93,-99.99,,,0.00,Acu-Link.com,2013-03-16 07:12:00,
2013-03-16 00:27:00,51.8,49.8,29.95,SW,225,0.0,-999.0,93,-99.99,,,0.00,Acu-Link.com,2013-03-16 07:27:00,
2013-03-16 00:42:00,51.8,50.1,29.95,SW,225,0.0,-999.0,94,-99.99,,,0.00,Acu-Link.com,2013-03-16 07:42:00,
2013-03-16 00:57:00,51.8,50.1,29.96,SW,225,0.0,-999.0,94,-99.99,,,0.00,Acu-Link.com,2013-03-16 07:57:00,
2013-03-16 01:13:00,51.6,49.9,29.96,SW,225,1.1,-999.0,94,-99.99,,,0.00,Acu-Link.com,2013-03-16 08:13:00,
2013-03-16 01:28:00,51.6,49.9,29.97,SW,225,1.1,-999.0,94,-99.99,,,0.00,Acu-Link.com,2013-03-16 08:28:00,
2013-03-16 01:43:00,51.8,50.1,29.96,SW,225,1.7,-999.0,94,-99.99,,,0.00,Acu-Link.com,2013-03-16 08:43:00,
2013-03-16 01:58:00,51.8,50.1,29.97,SW,225,2.7,-999.0,94,-99.99,,,0.00,Acu-Link.com,2013-03-16 08:58:00,
2013-03-16 02:13:00,51.4,49.7,29.96,SW,225,0.0,-999.0,94,-99.99,,,0.00,Acu-Link.com,2013-03-16 09:13:00,
2013-03-16 02:29:00,51.4,49.7,29.96,SW,225,0.0,-999.0,94,-99.99,,,0.00,Acu-Link.com,2013-03-16 09:29:00,
2013-03-16 02:44:00,51.6,49.9,29.95,SW,225,0.0,-999.0,94,-99.99,,,0.00,Acu-Link.com,2013-03-16 09:44:00,
2013-03-16 02:59:00,51.6,49.9,29.95,SW,225,0.0,-999.0,94,-99.99,,,0.00,Acu-Link.com,2013-03-16 09:59:00,
2013-03-16 03:14:00,51.1,49.4,29.94,SW,225,1.7,-999.0,94,-99.99,,,0.00,Acu-Link.com,2013-03-16 10:14:00,
2013-03-16 03:29:00,50.9,49.5,29.94,SW,225,0.0,-999.0,95,-99.99,,,0.00,Acu-Link.com,2013-03-16 10:29:00,
2013-03-16 03:45:00,50.9,49.5,29.93,SW,225,0.0,-999.0,95,-99.99,,,0.00,Acu-Link.com,2013-03-16 10:45:00,
2013-03-16 04:00:00,50.5,49.1,29.94,SW,225,0.0,-999.0,95,-99.99,,,0.00,Acu-Link.com,2013-03-16 11:00:00,
2013-03-16 04:15:00,50.4,49.0,29.94,SW,225,0.0,-999.0,95,-99.99,,,0.00,Acu-Link.com,2013-03-16 11:15:00,
2013-03-16 04:30:00,50.2,48.8,29.94,SW,225,0.0,-999.0,95,-99.99,,,0.00,Acu-Link.com,2013-03-16 11:30:00,
2013-03-16 04:45:00,50.0,48.6,29.94,SW,225,0.0,-999.0,95,-99.99,,,0.00,Acu-Link.com,2013-03-16 11:45:00,
2013-03-16 05:01:00,50.4,49.0,29.94,SW,225,0.0,-999.0,95,-99.99,,,0.00,Acu-Link.com,2013-03-16 12:01:00,
2013-03-16 05:16:00,50.5,49.1,29.95,SW,225,1.1,-999.0,95,-99.99,,,0.00,Acu-Link.com,2013-03-16 12:16:00,
2013-03-16 05:31:00,50.5,49.1,29.93,SW,225,0.0,-999.0,95,-99.99,,,0.00,Acu-Link.com,2013-03-16 12:31:00,
2013-03-16 05:46:00,50.5,49.4,29.94,SW,225,0.0,-999.0,96,-99.99,,,0.00,Acu-Link.com,2013-03-16 12:46:00,
2013-03-16 06:02:00,50.4,49.3,29.94,SW,225,0.0,-999.0,96,-99.99,,,0.00,Acu-Link.com,2013-03-16 13:02:00,
2013-03-16 06:17:00,50.4,49.3,29.94,SW,225,0.0,-999.0,96,-99.99,,,0.00,Acu-Link.com,2013-03-16 13:17:00,
2013-03-16 06:32:00,50.4,49.3,29.94,SW,225,0.0,-999.0,96,-99.99,,,0.00,Acu-Link.com,2013-03-16 13:32:00,
2013-03-16 06:47:00,50.4,49.3,29.94,SW,225,1.1,-999.0,96,-99.99,,,0.00,Acu-Link.com,2013-03-16 13:47:00,
2013-03-16 07:17:00,50.4,49.3,29.94,SW,225,0.0,-999.0,96,-99.99,,,0.00,Acu-Link.com,2013-03-16 14:17:00,
2013-03-16 07:33:00,50.4,49.3,29.94,SW,225,0.0,-999.0,96,-99.99,,,0.00,Acu-Link.com,2013-03-16 14:33:00,
2013-03-16 07:48:00,50.4,49.3,29.95,SW,225,0.0,-999.0,96,-99.99,,,0.00,Acu-Link.com,2013-03-16 14:48:00,
2013-03-16 08:03:00,50.4,49.3,29.93,SW,225,0.0,-999.0,96,-99.99,,,0.00,Acu-Link.com,2013-03-16 15:03:00,
2013-03-16 08:18:00,50.4,49.3,29.94,SW,225,2.2,-999.0,96,-99.99,,,0.00,Acu-Link.com,2013-03-16 15:18:00,
2013-03-16 08:34:00,50.7,49.6,29.94,SW,225,2.2,-999.0,96,-99.99,,,0.00,Acu-Link.com,2013-03-16 15:34:00,
2013-03-16 08:49:00,50.9,49.8,29.94,SW,225,1.1,-999.0,96,-99.99,,,0.00,Acu-Link.com,2013-03-16 15:49:00,
2013-03-16 09:04:00,51.4,50.3,29.95,SW,225,1.7,-999.0,96,-99.99,,,0.00,Acu-Link.com,2013-03-16 16:04:00,
2013-03-16 09:19:00,51.6,50.5,29.96,SW,225,0.0,-999.0,96,-99.99,,,0.00,Acu-Link.com,2013-03-16 16:19:00,
2013-03-16 09:35:00,51.8,50.7,29.96,SW,225,0.0,-999.0,96,-99.99,,,0.00,Acu-Link.com,2013-03-16 16:35:00,
2013-03-16 09:50:00,52.5,51.4,29.97,SW,225,1.7,-999.0,96,-99.99,,,0.00,Acu-Link.com,2013-03-16 16:50:00,
2013-03-16 10:05:00,52.3,51.2,29.97,SW,225,1.7,-999.0,96,-99.99,,,0.00,Acu-Link.com,2013-03-16 17:05:00,
2013-03-16 10:20:00,52.5,51.4,29.97,SW,225,2.2,-999.0,96,-99.99,,,0.00,Acu-Link.com,2013-03-16 17:20:00,
2013-03-16 10:36:00,52.7,51.3,29.97,SW,225,0.0,-999.0,95,-99.99,,,0.00,Acu-Link.com,2013-03-16 17:36:00,
2013-03-16 11:36:00,54.9,52.9,29.97,SSW,202,2.7,-999.0,93,-99.99,,,0.00,Acu-Link.com,2013-03-16 18:36:00,
2013-03-16 11:52:00,54.5,52.5,29.96,SW,225,6.8,-999.0,93,-99.99,,,0.00,Acu-Link.com,2013-03-16 18:52:00,
2013-03-16 12:07:00,55.6,53.3,29.95,SW,225,3.2,-999.0,92,-99.99,,,0.00,Acu-Link.com,2013-03-16 19:07:00,
2013-03-16 12:22:00,55.9,53.3,29.95,SW,225,4.2,-999.0,91,-99.99,,,0.00,Acu-Link.com,2013-03-16 19:22:00,
2013-03-16 12:37:00,57.6,54.4,29.94,SSE,157,4.2,-999.0,89,-99.99,,,0.00,Acu-Link.com,2013-03-16 19:37:00,
2013-03-16 12:52:00,57.9,54.4,29.93,South,180,6.8,-999.0,88,-99.99,,,0.00,Acu-Link.com,2013-03-16 19:52:00,
2013-03-16 13:08:00,57.7,53.9,29.92,South,180,6.8,-999.0,87,-99.99,,,0.00,Acu-Link.com,2013-03-16 20:08:00,
2013-03-16 13:23:00,60.8,56.3,29.91,South,180,4.2,-999.0,85,-99.99,,,0.00,Acu-Link.com,2013-03-16 20:23:00,
2013-03-16 13:38:00,61.0,55.8,29.90,SW,225,4.7,-999.0,83,-99.99,,,0.00,Acu-Link.com,2013-03-16 20:38:00,
2013-03-16 13:53:00,61.5,56.0,29.89,SW,225,6.8,-999.0,82,-99.99,,,0.00,Acu-Link.com,2013-03-16 20:53:00,
2013-03-16 14:08:00,62.2,56.0,29.89,South,180,5.3,-999.0,80,-99.99,,,0.00,Acu-Link.com,2013-03-16 21:08:00,
2013-03-16 14:24:00,62.8,56.2,29.88,SW,225,4.7,-999.0,79,-99.99,,,0.00,Acu-Link.com,2013-03-16 21:24:00,
2013-03-16 14:39:00,62.1,55.5,29.87,South,180,4.7,-999.0,79,-99.99,,,0.00,Acu-Link.com,2013-03-16 21:39:00,
2013-03-16 14:54:00,62.1,55.5,29.87,SSE,157,5.3,-999.0,79,-99.99,,,0.00,Acu-Link.com,2013-03-16 21:54:00,
2013-03-16 15:09:00,62.1,55.5,29.85,SW,225,4.7,-999.0,79,-99.99,,,0.00,Acu-Link.com,2013-03-16 22:09:00,
2013-03-16 15:25:00,62.1,55.5,29.86,SSE,157,6.3,-999.0,79,-99.99,,,0.00,Acu-Link.com,2013-03-16 22:25:00,
2013-03-16 15:40:00,62.1,55.5,29.86,South,180,7.3,-999.0,79,-99.99,,,0.00,Acu-Link.com,2013-03-16 22:40:00,
2013-03-16 15:55:00,62.1,55.5,29.86,SSW,202,5.3,-999.0,79,-99.99,,,0.00,Acu-Link.com,2013-03-16 22:55:00,
2013-03-16 16:10:00,62.1,55.5,29.87,SW,225,6.8,-999.0,79,-99.99,,,0.00,Acu-Link.com,2013-03-16 23:10:00,
2013-03-16 16:25:00,62.1,55.5,29.86,SW,225,3.7,-999.0,79,-99.99,,,0.00,Acu-Link.com,2013-03-16 23:25:00,
2013-03-16 16:41:00,62.1,55.5,29.86,SSW,202,4.2,-999.0,79,-99.99,,,0.00,Acu-Link.com,2013-03-16 23:41:00,
2013-03-16 17:11:00,62.1,55.5,29.86,ESE,112,4.7,-999.0,79,-99.99,,,0.00,Acu-Link.com,2013-03-17 00:11:00,
2013-03-16 17:26:00,62.1,55.5,29.86,SSE,157,3.2,-999.0,79,-99.99,,,0.00,Acu-Link.com,2013-03-17 00:26:00,
2013-03-16 17:57:00,62.1,55.5,29.86,SW,225,3.7,-999.0,79,-99.99,,,0.00,Acu-Link.com,2013-03-17 00:57:00,
2013-03-16 18:12:00,61.0,53.0,29.84,SW,225,2.2,-999.0,75,-99.99,,,0.00,Acu-Link.com,2013-03-17 01:12:00,
2013-03-16 18:42:00,59.0,51.4,29.85,SW,225,1.1,-999.0,76,-99.99,,,0.00,Acu-Link.com,2013-03-17 01:42:00,
2013-03-16 18:57:00,57.9,50.7,29.86,SW,225,2.7,-999.0,77,-99.99,,,0.00,Acu-Link.com,2013-03-17 01:57:00,
2013-03-16 19:13:00,56.7,50.3,29.87,SW,225,0.0,-999.0,79,-99.99,,,0.00,Acu-Link.com,2013-03-17 02:13:00,
2013-03-16 19:28:00,55.9,49.8,29.86,SW,225,0.0,-999.0,80,-99.99,,,0.00,Acu-Link.com,2013-03-17 02:28:00,
2013-03-16 19:43:00,54.5,48.8,29.87,SW,225,0.0,-999.0,81,-99.99,,,0.00,Acu-Link.com,2013-03-17 02:43:00,
2013-03-16 19:58:00,53.8,48.8,29.87,SW,225,0.0,-999.0,83,-99.99,,,0.00,Acu-Link.com,2013-03-17 02:58:00,
2013-03-16 20:14:00,52.9,48.5,29.88,SW,225,0.0,-999.0,85,-99.99,,,0.00,Acu-Link.com,2013-03-17 03:14:00,
2013-03-16 20:29:00,52.3,48.2,29.89,SW,225,0.0,-999.0,86,-99.99,,,0.00,Acu-Link.com,2013-03-17 03:29:00,
2013-03-16 20:44:00,51.6,47.9,29.90,SW,225,1.7,-999.0,87,-99.99,,,0.00,Acu-Link.com,2013-03-17 03:44:00,
2013-03-16 20:59:00,51.1,47.7,29.90,SW,225,1.7,-999.0,88,-99.99,,,0.00,Acu-Link.com,2013-03-17 03:59:00,
2013-03-16 21:14:00,50.9,47.8,29.91,SW,225,0.0,-999.0,89,-99.99,,,0.00,Acu-Link.com,2013-03-17 04:14:00,
2013-03-16 21:30:00,50.2,47.1,29.92,SW,225,0.0,-999.0,89,-99.99,,,0.00,Acu-Link.com,2013-03-17 04:30:00,
2013-03-16 21:45:00,49.8,46.7,29.92,SW,225,0.0,-999.0,89,-99.99,,,0.00,Acu-Link.com,2013-03-17 04:45:00,
2013-03-16 22:00:00,49.5,46.7,29.93,SW,225,1.1,-999.0,90,-99.99,,,0.00,Acu-Link.com,2013-03-17 05:00:00,
2013-03-16 22:15:00,49.3,46.5,29.93,SW,225,0.0,-999.0,90,-99.99,,,0.00,Acu-Link.com,2013-03-17 05:15:00,
2013-03-16 22:30:00,48.7,45.9,29.93,SW,225,0.0,-999.0,90,-99.99,,,0.00,Acu-Link.com,2013-03-17 05:30:00,
2013-03-16 22:46:00,48.2,45.4,29.93,SW,225,0.0,-999.0,90,-99.99,,,0.00,Acu-Link.com,2013-03-17 05:46:00,
2013-03-16 23:16:00,48.2,46.0,29.95,SW,225,1.1,-999.0,92,-99.99,,,0.00,Acu-Link.com,2013-03-17 06:16:00,
2013-03-16 23:46:00,47.7,45.5,29.94,SW,225,2.2,-999.0,92,-99.99,,,0.00,Acu-Link.com,2013-03-17 06:46:00,